Poughkeepsie, NY

7:21 PM EDT on May 26, 2017 (GMT -0400)
Dutchess County

Weather History for KPOU - April, 2014

Change the Weather History Date:

Friday, April 18, 2014

  Actual Average Record
Temperature  
Mean Temperature 40 °F 50 °F  
Max Temperature 50 °F 62 °F 94 °F (1976)
Min Temperature 29 °F 38 °F 24 °F (1962)
Degree Days  
Heating Degree Days 25 15  
Month to date heating degree days 298 335  
Since 1 July heating degree days 6028 5780  
Cooling Degree Days 0 0  
Month to date cooling degree days 6 0  
Year to date cooling degree days 6 0  
Moisture  
Dew Point 26 °F    
Average Humidity 62    
Maximum Humidity 82    
Minimum Humidity 33    
Precipitation  
Precipitation 0.00 in 0.12 in 0.36 in (1969)
Month to date precipitation 1.72 2.30  
Year to date precipitation 8.75 11.61  
Sea Level Pressure  
Sea Level Pressure 30.46 in    
Wind  
Wind Speed 2 mph (SE)    
Max Wind Speed 8 mph    
Max Gust Speed -    
Visibility 10 miles    
Events      
T = Trace of Precipitation, MM = Missing Value Source: NWS Daily Summary

Daily Weather History Graph

Daily Weather History Graph

Search for Another Location

Airport or City:

Trip Planner

Search our weather history database for the weather conditions in past years. The results will help you decide how hot, cold, wet, or windy it might be!

Date:

Astronomy

Apr. 18, 2014 Rise Set
Actual Time 6:10 AM EDT 7:39 PM EDT
Civil Twilight 5:41 AM EDT 8:08 PM EDT
Nautical Twilight 5:06 AM EDT 8:43 PM EDT
Astronomical Twilight 4:29 AM EDT 9:20 PM EDT
Moon 11:23 PM EDT (4/18) 8:28 AM EDT (4/18)
Length of Visible Light 14h 26m
Length of Day
13h 28m
Waning Gibbous, 87% of the Moon is Illuminated
Apr 18
Waning Gibbous
Apr 22
Last Quarter
Apr 29
New
May 6
First Quarter
May 14
Full

Hourly Weather History & Observations

Time (EDT) Temp. Windchill Dew Point Humidity Pressure Visibility Wind Dir Wind Speed Gust Speed Precip Events Conditions
12:53 AM 33.1 °F - 27.0 °F 78% 30.60 in 10.0 mi Calm Calm - N/A   Clear
1:53 AM 32.0 °F - 27.0 °F 82% 30.60 in 10.0 mi Calm Calm - N/A   Scattered Clouds
2:36 AM 32.0 °F - 27.0 °F 82% 30.61 in 10.0 mi Calm Calm - N/A   Mostly Cloudy
2:46 AM 32.0 °F - 27.0 °F 82% 30.60 in 10.0 mi Calm Calm - N/A   Scattered Clouds
2:53 AM 32.0 °F - 27.0 °F 82% 30.60 in 10.0 mi Calm Calm - N/A   Mostly Cloudy
3:10 AM 32.0 °F - 27.0 °F 82% 30.60 in 10.0 mi Calm Calm - N/A   Scattered Clouds
3:53 AM 30.9 °F 26.2 °F 26.1 °F 82% 30.57 in 10.0 mi East 4.6 mph - N/A   Clear
4:53 AM 32.0 °F 25.6 °F 25.0 °F 75% 30.50 in 10.0 mi East 6.9 mph - N/A   Clear
5:53 AM 32.0 °F - 23.0 °F 69% 30.52 in 10.0 mi Calm Calm - N/A   Clear
6:53 AM 30.9 °F - 24.1 °F 76% 30.53 in 10.0 mi Calm Calm - N/A   Clear
7:53 AM 35.1 °F 28.6 °F 25.0 °F 67% 30.55 in 10.0 mi SE 8.1 mph - N/A   Clear
8:53 AM 37.0 °F 33.3 °F 27.0 °F 67% 30.56 in 10.0 mi East 4.6 mph - N/A   Clear
9:53 AM 39.9 °F 35.1 °F 27.0 °F 60% 30.53 in 10.0 mi ESE 6.9 mph - N/A   Scattered Clouds
10:53 AM 41.0 °F 39.0 °F 27.0 °F 57% 30.49 in 10.0 mi ESE 3.5 mph - N/A   Clear
12:53 PM 46.0 °F - 27.0 °F 47% 30.44 in 10.0 mi Calm Calm - N/A   Clear
1:53 PM 48.0 °F - 27.0 °F 44% 30.42 in 10.0 mi Variable 3.5 mph - N/A   Clear
2:53 PM 48.9 °F - 27.0 °F 43% 30.39 in 10.0 mi NW 4.6 mph - N/A   Clear
3:53 PM 48.9 °F - 27.0 °F 43% 30.36 in 10.0 mi West 3.5 mph - N/A   Clear
4:53 PM 50.0 °F - 26.1 °F 39% 30.32 in 10.0 mi WSW 6.9 mph - N/A   Clear
5:53 PM 50.0 °F - 21.9 °F 33% 30.30 in 10.0 mi Variable 5.8 mph - N/A   Clear
6:53 PM 48.9 °F - 26.1 °F 41% 30.28 in 10.0 mi South 5.8 mph - N/A   Clear
8:53 PM 46.0 °F 43.9 °F 27.0 °F 47% 30.26 in 10.0 mi SSE 4.6 mph - N/A   Clear
9:53 PM 45.0 °F 43.5 °F 28.0 °F 52% 30.26 in 10.0 mi South 3.5 mph - N/A   Clear
11:53 PM 43.0 °F - 30.0 °F 60% 30.23 in 10.0 mi Calm Calm - N/A   Clear